TimeHST,TemperatureF,Dew PointF,Humidity,Sea Level PressureIn,VisibilityMPH,Wind Direction,Wind SpeedMPH,Gust SpeedMPH,PrecipitationIn,Events,Conditions,WindDirDegrees,DateUTC
12:56 AM,64.9,64.9,100,29.95,10.0,ENE,3.5,-,N/A,,Clear,60,2013-05-05 10:56:00
1:39 AM,66.2,64.4,94,30.00,10.0,ENE,4.6,-,N/A,,Mostly Cloudy,70,2013-05-05 11:39:00
1:56 AM,66.2,64.4,94,29.99,10.0,East,4.6,-,N/A,,Overcast,100,2013-05-05 11:56:00
2:21 AM,64.4,64.4,100,29.99,10.0,ENE,4.6,-,N/A,,Mostly Cloudy,70,2013-05-05 12:21:00
2:56 AM,64.9,63.0,93,29.92,10.0,East,5.8,-,N/A,,Mostly Cloudy,90,2013-05-05 12:56:00
3:43 AM,66.2,64.4,94,29.97,10.0,East,3.5,-,N/A,,Mostly Cloudy,100,2013-05-05 13:43:00
3:56 AM,65.8,63.9,93,29.91,10.0,ESE,3.5,-,N/A,,Scattered Clouds,110,2013-05-05 13:56:00
4:56 AM,64.4,62.6,94,29.97,10.0,East,5.8,-,N/A,,Mostly Cloudy,80,2013-05-05 14:56:00
5:56 AM,64.9,63.0,93,29.94,10.0,East,5.8,-,N/A,,Scattered Clouds,90,2013-05-05 15:56:00
6:56 AM,65.8,63.9,93,29.95,10.0,East,5.8,-,N/A,,Clear,80,2013-05-05 16:56:00
7:56 AM,71.6,66.2,83,30.01,10.0,SE,6.9,-,N/A,,Scattered Clouds,130,2013-05-05 17:56:00
8:44 AM,73.4,64.4,73,30.02,10.0,SSE,6.9,-,N/A,,Mostly Cloudy,160,2013-05-05 18:44:00
8:56 AM,72.9,65.8,79,29.96,10.0,SSE,6.9,-,N/A,,Scattered Clouds,150,2013-05-05 18:56:00
9:33 AM,73.4,66.2,78,30.03,10.0,SSE,9.2,-,N/A,,Mostly Cloudy,150,2013-05-05 19:33:00
9:37 AM,73.4,66.2,78,30.02,10.0,SE,8.1,-,N/A,,Mostly Cloudy,140,2013-05-05 19:37:00
9:56 AM,72.9,65.8,79,29.96,10.0,SSE,8.1,-,N/A,,Mostly Cloudy,150,2013-05-05 19:56:00
10:16 AM,73.4,66.2,78,30.02,10.0,SSE,9.2,-,N/A,,Mostly Cloudy,150,2013-05-05 20:16:00
10:40 AM,75.2,66.2,73,30.01,10.0,South,12.7,-,N/A,,Mostly Cloudy,180,2013-05-05 20:40:00
10:48 AM,75.2,64.4,69,30.02,10.0,South,11.5,-,N/A,,Mostly Cloudy,180,2013-05-05 20:48:00
10:56 AM,75.2,64.4,69,30.01,10.0,SSE,9.2,-,N/A,,Mostly Cloudy,160,2013-05-05 20:56:00
11:56 AM,75.9,65.8,71,29.94,10.0,SSW,13.8,-,N/A,,Mostly Cloudy,200,2013-05-05 21:56:00
12:29 PM,75.2,66.2,73,29.98,10.0,South,16.1,-,N/A,,Mostly Cloudy,180,2013-05-05 22:29:00
12:39 PM,75.2,66.2,73,29.99,10.0,South,11.5,-,N/A,,Mostly Cloudy,180,2013-05-05 22:39:00
12:56 PM,73.9,66.9,79,29.93,10.0,South,12.7,-,N/A,,Overcast,180,2013-05-05 22:56:00
1:11 PM,75.2,66.2,73,29.97,10.0,SSW,12.7,-,N/A,,Overcast,200,2013-05-05 23:11:00
1:56 PM,73.4,66.2,78,29.96,10.0,SSW,15.0,-,N/A,,Overcast,200,2013-05-05 23:56:00
2:25 PM,73.4,66.2,78,29.95,10.0,South,13.8,-,N/A,,Overcast,190,2013-05-06 00:25:00
2:36 PM,73.4,66.2,78,29.96,4.0,WSW,9.2,-,N/A,,Haze,240,2013-05-06 00:36:00
2:39 PM,71.6,66.2,83,29.96,1.2,SW,6.9,-,0.03,,Haze,230,2013-05-06 00:39:00
2:41 PM,71.6,66.2,83,29.96,0.8,WSW,4.6,-,0.05,,Overcast,250,2013-05-06 00:41:00
2:45 PM,71.6,66.2,83,29.95,0.5,Variable,4.6,-,0.08,Fog,Fog,0,2013-05-06 00:45:00
2:56 PM,70.0,68.0,93,29.91,0.2,SW,13.8,-,0.13,Fog,Fog,230,2013-05-06 00:56:00
3:08 PM,69.8,69.8,100,29.95,1.2,SW,11.5,-,0.01,,Overcast,220,2013-05-06 01:08:00
3:18 PM,69.8,68.0,94,29.95,0.8,SW,11.5,-,0.02,,Overcast,220,2013-05-06 01:18:00
3:26 PM,68.0,66.2,94,29.95,1.0,SW,13.8,-,0.03,,Overcast,220,2013-05-06 01:26:00
3:37 PM,68.0,66.2,94,29.95,0.8,SW,12.7,-,0.06,,Overcast,220,2013-05-06 01:37:00
3:45 PM,68.0,66.2,94,29.95,1.2,SW,8.1,-,0.07,,Overcast,220,2013-05-06 01:45:00
3:56 PM,66.9,65.8,96,29.91,1.0,WSW,8.1,-,0.07,,Overcast,240,2013-05-06 01:56:00
4:01 PM,68.0,66.2,94,29.95,0.5,WSW,8.1,-,0.01,Fog,Fog,250,2013-05-06 02:01:00
4:09 PM,68.0,66.2,94,29.96,0.2,SW,6.9,-,0.02,Fog,Fog,230,2013-05-06 02:09:00
4:18 PM,66.2,66.2,100,29.95,0.8,SW,4.6,-,0.02,,Overcast,230,2013-05-06 02:18:00
4:20 PM,66.2,66.2,100,29.95,1.5,WSW,6.9,-,0.03,,Overcast,240,2013-05-06 02:20:00
4:24 PM,66.2,66.2,100,29.95,3.0,SW,5.8,-,0.03,,Overcast,230,2013-05-06 02:24:00
4:34 PM,66.2,66.2,100,29.95,2.0,SW,5.8,-,0.03,,Overcast,220,2013-05-06 02:34:00
4:37 PM,66.2,66.2,100,29.95,1.8,SSW,5.8,-,0.03,,Overcast,210,2013-05-06 02:37:00
4:46 PM,66.2,66.2,100,29.96,1.5,SSW,6.9,-,0.04,,Overcast,210,2013-05-06 02:46:00
4:56 PM,66.2,66.2,100,29.96,1.0,West,4.6,-,N/A,,Overcast,270,2013-05-06 02:56:00
5:05 PM,66.2,66.2,100,29.95,0.8,Calm,Calm,-,0.01,,Overcast,0,2013-05-06 03:05:00
5:12 PM,66.2,66.2,100,29.95,1.2,Calm,Calm,-,0.01,,Overcast,0,2013-05-06 03:12:00
5:14 PM,66.2,66.2,100,29.95,2.0,Calm,Calm,-,0.01,,Overcast,0,2013-05-06 03:14:00
5:18 PM,66.2,66.2,100,29.95,5.0,Calm,Calm,-,0.01,,Overcast,0,2013-05-06 03:18:00
5:31 PM,68.0,68.0,100,29.95,7.0,ESE,4.6,-,0.01,,Overcast,120,2013-05-06 03:31:00
5:47 PM,68.0,68.0,100,29.95,9.0,ESE,4.6,-,0.01,,Mostly Cloudy,120,2013-05-06 03:47:00
5:56 PM,68.0,68.0,100,29.91,10.0,SSE,3.5,-,0.01,,Overcast,150,2013-05-06 03:56:00
6:08 PM,68.0,68.0,100,29.96,2.5,Calm,Calm,-,0.02,,Mostly Cloudy,0,2013-05-06 04:08:00
6:10 PM,68.0,68.0,100,29.96,1.8,South,5.8,-,0.03,,Overcast,180,2013-05-06 04:10:00
6:19 PM,66.2,66.2,100,29.96,1.2,South,8.1,-,0.05,,Overcast,190,2013-05-06 04:19:00
6:34 PM,66.2,66.2,100,29.96,1.0,South,5.8,-,0.07,,Overcast,180,2013-05-06 04:34:00
6:48 PM,66.2,66.2,100,29.97,1.5,South,4.6,-,0.09,,Overcast,180,2013-05-06 04:48:00
6:56 PM,66.9,66.9,100,29.93,5.0,SW,3.5,-,0.09,,Overcast,230,2013-05-06 04:56:00
7:18 PM,68.0,68.0,100,29.98,10.0,WSW,5.8,-,N/A,,Mostly Cloudy,250,2013-05-06 05:18:00
7:35 PM,68.0,68.0,100,29.98,10.0,WSW,3.5,-,N/A,,Mostly Cloudy,240,2013-05-06 05:35:00
7:42 PM,68.0,68.0,100,29.98,10.0,West,4.6,-,N/A,,Mostly Cloudy,260,2013-05-06 05:42:00
7:56 PM,68.0,68.0,100,29.99,10.0,West,8.1,-,N/A,,Overcast,260,2013-05-06 05:56:00
8:05 PM,68.0,68.0,100,29.99,2.5,WSW,8.1,-,0.01,,Overcast,250,2013-05-06 06:05:00
8:18 PM,68.0,68.0,100,30.00,2.0,SW,5.8,-,0.02,,Overcast,230,2013-05-06 06:18:00
8:28 PM,68.0,68.0,100,30.00,2.5,South,5.8,-,0.02,,Overcast,190,2013-05-06 06:28:00
8:39 PM,68.0,68.0,100,30.00,4.0,South,4.6,-,0.02,,Overcast,180,2013-05-06 06:39:00
8:56 PM,68.0,68.0,100,29.95,2.5,Calm,Calm,-,0.03,,Overcast,0,2013-05-06 06:56:00
9:14 PM,68.0,68.0,100,30.01,6.0,Calm,Calm,-,N/A,,Mostly Cloudy,0,2013-05-06 07:14:00
9:56 PM,66.9,66.9,100,29.96,10.0,SSE,4.6,-,N/A,,Overcast,160,2013-05-06 07:56:00
10:56 PM,68.0,68.0,100,30.01,10.0,SW,5.8,-,N/A,,Mostly Cloudy,230,2013-05-06 08:56:00
11:05 PM,68.0,68.0,100,30.01,9.0,SW,4.6,-,N/A,,Overcast,230,2013-05-06 09:05:00
11:16 PM,68.0,68.0,100,30.01,2.5,West,3.5,-,0.01,,Mostly Cloudy,270,2013-05-06 09:16:00
11:20 PM,68.0,68.0,100,30.00,1.5,Calm,Calm,-,0.02,,Overcast,0,2013-05-06 09:20:00
11:24 PM,69.8,68.0,94,30.00,1.0,SSW,3.5,-,0.04,,Overcast,210,2013-05-06 09:24:00
11:30 PM,68.0,68.0,100,30.00,0.8,Calm,Calm,-,0.11,,Overcast,0,2013-05-06 09:30:00
11:45 PM,69.8,68.0,94,30.00,0.5,Variable,3.5,-,0.22,Fog,Fog,0,2013-05-06 09:45:00
11:56 PM,68.0,68.0,100,29.94,6.0,ESE,4.6,-,0.22,,Overcast,110,2013-05-06 09:56:00